Regional Weather Roundup
Issued by NWS Charleston, SC

Current Version | Previous Version | Graphics & Text | Print | Product List | Glossary On
Versions: 1 2 3 4 5 6 7 8 9 10 11 12 13 14 15 16 17 18 19 20 21 22 23 24 25 26 27 28 29 30 31 32 33 34 35 36 37 38 39 40 41 42 43 44 45 46 47 48 49 50
000 ASUS42 KCHS 191425 RWRCHS REGIONAL WEATHER ROUNDUP NATIONAL WEATHER SERVICE CHARLESTON SC 1000 AM EDT FRI SEP 19 2014 NOTE: "FAIR" INDICATES FEW OR NO CLOUDS BELOW 12,000 FEET WITH NO SIGNIFICANT WEATHER AND/OR OBSTRUCTIONS TO VISIBILITY. NOT ALL STATIONS ARE QUALITY CONTROLLED BY THE NATIONAL WEATHER SERVICE. USE DATA WITH CAUTION...ESPECIALLY DEWPOINT OBSERVATIONS. SCZ027-030-031-034>040-042>050-191500- ...SOUTH CAROLINA... CITY SKY/WX TMP DP RH WIND PRES REMARKS N CHARLESTON CLOUDY 76 68 76 E8 30.07R WATERFRONT PRK N/A 75 N/A N/A E12 N/A FORT JOHNSON NOT AVBL MOUNT PLEASANT PTSUNNY 73 72 94 CALM 30.09R FOG JOHNS ISLAND MOSUNNY 75 75 100 NE14G21 30.08R PINOPOLIS N/A 75 70 83 E7 30.00R MONCKS CORNER N/A 75 72 88 CALM 30.09R SUMMERVILLE FAIR 73 72 94 E3 30.09R BEAUFORT MCAS PTSUNNY 78 72 81 W7 30.05R BEAUFORT ARPT FAIR 77 73 88 NE6 30.05R HILTON HEAD IS SUNNY 81 72 74 NE6 30.05R GEORGETOWN NOT AVBL WALTERBORO CLOUDY 77 73 88 E9 30.08R ORANGEBURG CLOUDY 74 67 78 NE7 30.09R BARNWELL CLOUDY 70 66 88 N12 30.11R AIKEN DRIZZLE 68 68 100 E10 30.13S MANNING FAIR 77 68 73 NE7 30.10R KINGSTREE NOT AVBL COLUMBIA LGT RAIN 69 65 86 N7 30.11R SUMTER CLOUDY 72 62 71 NE10 30.10R FLORENCE CLOUDY 74 63 68 E8 30.12R MYRTLE BEACH SUNNY 75 66 73 E17 30.08S N MYRTLE BEACH PTSUNNY 76 67 73 NE10 30.09R $$ GAZ063-065-086>088-099>101-113>116-118-119-134-136>141-150-191500- ...GEORGIA... CITY SKY/WX TMP DP RH WIND PRES REMARKS SAVANNAH ARPT CLOUDY 80 71 74 E8 30.04R HUNTER AAF PTSUNNY 80 74 81 NE8 30.02R FORT STEWART PTSUNNY 77 71 81 VRB3 30.03R STATESBORO NOT AVBL SYLVANIA CLOUDY 77 74 91 E9 30.07S CLAXTON FAIR 79 75 89 E5 30.05S THOMSON PTSUNNY 72 70 95 NE7 30.16R AUGUSTA-BUSH CLOUDY 70 66 87 N6 30.10R AUGUSTA-DANIEL LGT RAIN 70 64 81 N8 30.11R SWAINSBORO FAIR 75 75 100 E5 30.08R VIDALIA PTSUNNY 81 72 74 E7 30.05R ALMA MOSUNNY 79 72 79 E7 30.03R WAYCROSS PTSUNNY 81 76 85 E5 30.02S JESUP FAIR 81 75 83 E7 30.03S BRUNSWICK PTSUNNY 79 73 83 CALM 30.03R SAINT SIMONS PTSUNNY 78 72 81 NE5 30.01S $$ SCZ027-028-034-036>038-045-046-048>050-GAZ119-141-191500- ...LAKE AND SUPPLEMENTAL COASTAL OBSERVATIONS... STATION/POSITION TIME TEMP WIND PRES WAVE SWELL AIR SEA DIR/SP/G HT/PER HT/PER/DIR (UTC) (F) (DEG/KT/KT) (MB) (FT/S) (FT/S/D) UPR LAKE MARION NOT AVBL WINYAH BAY 1400 79 70/ 13 1018.0S LAKE MURRAY 1300 66 350/ 3/ 5 1019.0R ACE BASIN NERRS 1400 75 60/ 2 1017.0S FORT PULASKI 1400 80 70/ 10/ 13 1017.3R SAPELO ISLAND 1400 82 50/ 7 1017.0S $$ ANZ835-935-AMZ111-154-330-350-352-354-374-450-454-472-191500- ...C-MAN AND BUOY OBSERVATIONS... STATION/POSITION TIME TEMP WIND PRES WAVE SWELL AIR SEA DIR/SP/G HT/PER HT/PER/DIR (UTC) (F) (DEG/KT/KT) (MB) (FT/S) (FT/S/D) FOLLY BEACH CMAN 1400 75 90/ 19/ 21 1018.6R BUOY 41004 1400 80 82 70/ 14/ 23 1016.9R 4/ 6 2/ 9 BUOY 41008 1400 81 84 70/ 10/ 12 1016.6R 2/ 9 2/110/ 9 5E ST. MARYS GA 1400 84 N/A 2/ 9 2/ 90/11 FRYING PAN BUOY NOT AVBL BUOY 41025 1400 77 60/ 16/ 21 1020.5R 6/ 6 2/ 60/ 8 CAPE LOOKOUT NC 1400 75 50/ 22/ 24 1020.3S BUOY 41002 1252 79 82 80/ 16/ 17 1018.5 4/ 6 2/ 80/ 9 BUOY 41010 1400 82 85 80/ 10/ 14 1015.6R 3/10 3/ 50/10 BUOY 41012 NOT AVBL ST AUGUSTINE FL 1400 82 80/ 8/ 9 1016.3R CAPERS NEARSHORE 1300 76 90/ 12/ 17 N/A FRIPP NEARSHORE NOT AVBL $$

USA.gov is the U.S. government's official web portal to all federal, state and local government web resources and services.